Airfield :
LOGIN :

Register | Disclaimer

   EN    FR    IT 

 










Legend :    VFR   Marginal VFR   IFR   Intensive IFR   Very Intensive IFR
Visi :
Ceiling :
>= 8 km
>= 3000ft
5 to 8 km
1000 to 3000 ft
1500m to 5 km
500 to 1000 ft
800 to 1500m
200 to 500 ft
< 800m
< 200 ft
Symbols :   Thunderstorms  Fog  Heavy snow  Heavy precipitations  Wind > 20 kt
SIGMETs :     Misc.  Thunderstorms  Icing  Turbulence  Mountain Waves  Volcanic Ashes







- Airport Elevation : 7 ft
- IATA code : VCE


LIPZ - Marco Polo Int. Venezia

CURRENT METAR :
  • 212150Z 09007KT CAVOK 27/21 Q1011 NOSIG

EXPIRED METARs :
  • 212120Z 09008KT CAVOK 27/20 Q1011 NOSIG
  • 212050Z 10008KT CAVOK 27/20 Q1011 NOSIG
  • 212020Z 09006KT CAVOK 27/20 Q1011 NOSIG
  • 211950Z 09006KT CAVOK 27/19 Q1011 NOSIG
  • 211920Z 10005KT CAVOK 28/18 Q1011 NOSIG

TAF TAF LIPZ
Valid from the 21 at 18:00 until the 23 at 00:00 UTC


211700Z 2118/2224 13010KT CAVOK
BECMG 2118/2120 03008KT
BECMG 2209/2212 16010KT
BECMG 2218/2220 03007KT
No reported NOTAMs for that airfield.



MET'MAP, your aeronautical weather chart ! - Copyright ORBIFLY December 2007 - Disclaimer

ORBIFLY MET'MAP TEAM :

Programming & Development : Alexandra Zaïnal
Concept & Development : Baudouin d'Aumeries
Co-Development & Prog : Marc-Olivier Méhu
Technical & hardware support : Manuel Goepfert

Contact : metmap@orbifly.com




SOURCES & CREDITS :

   NOAA